Flag for Norway Weather past 2 weeks in Brønnøysund, Norway

Now
52 °F

Cool.


Feels Like: 49 °F
Forecast: 44 / 49 °F
Wind: 9 mph from South

Location: Bronnoysund / Bronnoy

Current Time: Oct 26, 2014 at 12:45:47 AM

Latest Report: Oct 26, 2014 at 12:00 AM


Visibility: N/A

Pressure: 29.44 "Hg

Humidity: 55%

Dew point: 36 °F

Location of BrønnøysundLocation

Historic Weather in Brønnøysund — Graph

°F

Brønnøysund temperature yesterday

Maximum temperature yesterday: 53 °F (at 2:00 PM)
Minimum temperature yesterday: 44 °F (at 9:00 AM)
Average temperature yesterday: 48 °F

Past Weeks' High & Low Weather Summary

 TemperatureHumidityPressure
High53 °F (Oct 25, 2:00 PM)95% (Oct 25, 10:00 AM)30.07 "Hg (Oct 25, 10:00 AM)
Low34 °F (Oct 18, 7:00 AM)36% (Oct 17, 1:00 PM)29.29 "Hg (Oct 20, 4:00 AM)
Average44 °F68%29.78 "Hg
* Reported Oct 10 11:00 PM — Oct 25 11:00 PM, Brønnøysund, Weather by CustomWeather, © 2014

Note: Actual official high and low records may vary slightly from our data, if they occured in-between our weather recording intervals... More about our weather records

Advertising

Brønnøysund weather history for previous 24 hours

 ConditionsComfort  
Time TempWeatherWind HumidityBarometerVisibility
11:00 PM
Oct 25
51 °FCool.8 mph58%29.44 "HgN/A
10:00 PM51 °FCool.9 mph56%29.44 "HgN/A
9:00 PM51 °FCool.9 mph59%29.47 "HgN/A
8:00 PM51 °FCool.9 mph58%29.47 "HgN/A
7:00 PM51 °FCool.9 mph61%29.50 "HgN/A
6:00 PM51 °FCool.10 mph62%29.50 "HgN/A
5:00 PM50 °FCool.6 mph68%29.54 "HgN/A
4:00 PM51 °FCool.6 mph68%29.56 "HgN/A
3:00 PM51 °FCool.7 mph68%29.57 "HgN/A
2:00 PM53 °FCool.5 mph63%29.57 "HgN/A
1:00 PM51 °FCool.7 mph71%29.58 "HgN/A
12:00 PM50 °FCool.1 mph77%29.58 "HgN/A
11:00 AM46 °FCool.1 mph93%29.58 "HgN/A
10:00 AM45 °FQuite cool.2 mph95%29.59 "HgN/A
9:00 AM44 °FQuite cool.1 mph93%29.59 "HgN/A
8:00 AM45 °FCool.2 mph89%29.58 "HgN/A
7:00 AM45 °FQuite cool.3 mph88%29.57 "HgN/A
6:00 AM45 °FCool.2 mph81%29.57 "HgN/A
5:00 AM46 °FCool.5 mph78%29.59 "HgN/A
4:00 AM46 °FCool.2 mph80%29.62 "HgN/A
3:00 AM45 °FCool.2 mph86%29.63 "HgN/A
2:00 AM47 °FCool.2 mph81%29.65 "HgN/A
1:00 AM47 °FCool.2 mph79%29.65 "HgN/A
12:00 AM48 °FCool.3 mph74%29.65 "HgN/A
Weather by CustomWeather, © 2014

See weather overviewHow to use our weather pages